Overview Statistics Trail Chart Weather Telemetry Raw packets
 

This is the latest recevied weather packets stored in our database for station/object KW4UJ. If no packets are shown the sender has not sent any weather packets the latest 10 day(s).

<< 12 13 14 15 16 17 18 >>
Time Temp. Humidity Pressure Rain* Wind** Luminosity Snow
1788552939 30.56° C 69% 1012.9 hPa 0 mm - 26 W/m² -
1788552634 30.56° C 68% 1012.7 hPa 0 mm - 34 W/m² -
1788552333 30.56° C 68% 1012.9 hPa 0 mm - 46 W/m² -
1788552028 31.11° C 67% 1012.8 hPa 0 mm - 66 W/m² -
1788551726 31.11° C 65% 1012.5 hPa 0 mm - 96 W/m² -
1788551426 31.67° C 64% 1012.5 hPa 0 mm - 125 W/m² -
1788551121 31.67° C 63% 1012.5 hPa 0 mm - 151 W/m² -
1788550815 32.22° C 64% 1012.3 hPa 0 mm - 177 W/m² -
1788550510 32.22° C 64% 1012.2 hPa 0 mm - 207 W/m² -
1788550207 31.67° C 62% 1012.3 hPa 0 mm - 201 W/m² -
1788549906 32.22° C 62% 1012.7 hPa 0 mm - 207 W/m² -
1788549602 32.78° C 60% 1012.3 hPa 0 mm - 354 W/m² -
1788549299 32.78° C 60% 1012.4 hPa 0 mm - 275 W/m² -
1788548995 32.22° C 61% 1012.5 hPa 0 mm - 517 W/m² -
1788548690 32.78° C 60% 1012.6 hPa 0 mm - 504 W/m² -
1788548386 33.33° C 58% 1012.7 hPa 0 mm - 424 W/m² -
1788548082 32.78° C 58% 1012.8 hPa 0 mm - 497 W/m² -
1788547777 32.78° C 61% 1013.1 hPa 0 mm - 579 W/m² -
1788547477 32.78° C 59% 1012.9 hPa 0 mm - 585 W/m² -
1788547172 32.22° C 61% 1013.2 hPa 0 mm - 585 W/m² -
1788546867 32.22° C 60% 1013.4 hPa 0 mm - 587 W/m² -
1788546563 32.22° C 61% 1013.5 hPa 0 mm - 592 W/m² -
1788546258 32.22° C 61% 1013.4 hPa 0 mm - 560 W/m² -
1788545953 32.22° C 60% 1013.5 hPa 0 mm - 546 W/m² -
1788545648 32.22° C 60% 1013.6 hPa 0 mm - 539 W/m² -

* Rain latest hour (hover to see other rain measurements)
** Current wind speed in m/s (hover to see current wind gust speed)